Time,TemperatureF,DewpointF,PressureIn,WindDirection,WindDirectionDegrees,WindSpeedMPH,WindSpeedGustMPH,Humidity,HourlyPrecipIn,Conditions,Clouds,dailyrainin,SoftwareType,DateUTC
2013-09-11 00:11:00,78.8,76.0,30.00,ESE,114,0.0,-999.0,90,-99.99,,,0.49,weatherlink.com 1.10,2013-09-11 04:11:00,
2013-09-11 00:26:00,78.5,76.0,30.00,SSE,153,2.0,-999.0,91,-99.99,,,0.49,weatherlink.com 1.10,2013-09-11 04:26:00,
2013-09-11 00:41:00,78.4,75.0,30.00,SSE,156,1.0,-999.0,90,-99.99,,,0.00,weatherlink.com 1.10,2013-09-11 04:41:00,
2013-09-11 00:56:00,78.0,74.0,30.00,South,187,1.0,-999.0,88,-99.99,,,0.00,weatherlink.com 1.10,2013-09-11 04:56:00,
2013-09-11 01:11:00,77.8,74.0,30.00,SE,133,0.0,-999.0,87,-99.99,,,0.00,weatherlink.com 1.10,2013-09-11 05:11:00,
2013-09-11 01:26:00,77.7,74.0,29.99,ESE,102,0.0,-999.0,87,-99.99,,,0.00,weatherlink.com 1.10,2013-09-11 05:26:00,
2013-09-11 01:41:00,77.5,74.0,29.99,SE,130,0.0,-999.0,88,-99.99,,,0.00,weatherlink.com 1.10,2013-09-11 05:41:00,
2013-09-11 01:56:00,77.5,74.0,29.99,SE,128,0.0,-999.0,89,-99.99,,,0.00,weatherlink.com 1.10,2013-09-11 05:56:00,
2013-09-11 02:11:00,77.3,74.0,29.98,SE,128,0.0,-999.0,90,-99.99,,,0.00,weatherlink.com 1.10,2013-09-11 06:11:00,
2013-09-11 02:26:00,77.2,75.0,29.98,SE,128,0.0,-999.0,91,-99.99,,,0.00,weatherlink.com 1.10,2013-09-11 06:26:00,
2013-09-11 02:41:00,77.0,75.0,29.98,SE,128,0.0,-999.0,92,-99.99,,,0.00,weatherlink.com 1.10,2013-09-11 06:41:00,
2013-09-11 02:56:00,76.9,75.0,29.97,SE,128,0.0,-999.0,92,-99.99,,,0.00,weatherlink.com 1.10,2013-09-11 06:56:00,
2013-09-11 03:12:00,77.2,75.0,29.97,SE,126,0.0,-999.0,93,-99.99,,,0.00,weatherlink.com 1.10,2013-09-11 07:12:00,
2013-09-11 03:27:00,77.5,75.0,29.97,SE,126,1.0,-999.0,92,-99.99,,,0.00,weatherlink.com 1.10,2013-09-11 07:27:00,
2013-09-11 03:42:00,77.8,75.0,29.96,SE,126,0.0,-999.0,92,-99.99,,,0.00,weatherlink.com 1.10,2013-09-11 07:42:00,
2013-09-11 03:57:00,78.1,75.0,29.95,SSE,150,0.0,-999.0,91,-99.99,,,0.00,weatherlink.com 1.10,2013-09-11 07:57:00,
2013-09-11 04:27:00,78.0,76.0,29.96,SE,134,0.0,-999.0,92,-99.99,,,0.00,weatherlink.com 1.10,2013-09-11 08:27:00,
2013-09-11 04:42:00,78.1,75.0,29.96,SE,134,0.0,-999.0,91,-99.99,,,0.00,weatherlink.com 1.10,2013-09-11 08:42:00,
2013-09-11 04:57:00,77.9,75.0,29.96,SE,126,0.0,-999.0,91,-99.99,,,0.00,weatherlink.com 1.10,2013-09-11 08:57:00,
2013-09-11 05:12:00,77.9,75.0,29.97,SE,126,0.0,-999.0,91,-99.99,,,0.00,weatherlink.com 1.10,2013-09-11 09:12:00,
2013-09-11 05:27:00,77.6,75.0,29.97,SE,126,0.0,-999.0,92,-99.99,,,0.00,weatherlink.com 1.10,2013-09-11 09:27:00,
2013-09-11 05:42:00,77.4,75.0,29.97,SE,126,0.0,-999.0,92,-99.99,,,0.00,weatherlink.com 1.10,2013-09-11 09:42:00,
2013-09-11 05:57:00,77.3,75.0,29.98,SE,126,0.0,-999.0,93,-99.99,,,0.00,weatherlink.com 1.10,2013-09-11 09:57:00,
2013-09-11 06:12:00,77.5,75.0,29.98,SE,126,0.0,-999.0,93,-99.99,,,0.00,weatherlink.com 1.10,2013-09-11 10:12:00,
2013-09-11 06:27:00,77.5,75.0,30.00,SSE,165,6.0,-999.0,92,-99.99,,,0.16,weatherlink.com 1.10,2013-09-11 10:27:00,
2013-09-11 06:42:00,76.7,74.0,29.99,East,80,1.0,-999.0,92,-99.99,,,0.53,weatherlink.com 1.10,2013-09-11 10:42:00,
2013-09-11 06:57:00,76.0,74.0,29.99,NE,53,0.0,-999.0,93,-99.99,,,0.55,weatherlink.com 1.10,2013-09-11 10:57:00,
2013-09-11 07:12:00,76.1,74.0,29.99,ENE,77,0.0,-999.0,93,-99.99,,,0.64,weatherlink.com 1.10,2013-09-11 11:12:00,
2013-09-11 07:27:00,76.2,74.0,30.00,ENE,77,0.0,-999.0,94,-99.99,,,0.64,weatherlink.com 1.10,2013-09-11 11:27:00,
2013-09-11 07:42:00,76.5,75.0,30.00,ENE,77,0.0,-999.0,95,-99.99,,,0.64,weatherlink.com 1.10,2013-09-11 11:42:00,
2013-09-11 07:57:00,76.9,75.0,30.01,ENE,75,0.0,-999.0,95,-99.99,,,0.64,weatherlink.com 1.10,2013-09-11 11:57:00,
2013-09-11 08:12:00,77.6,76.0,30.02,East,82,1.0,-999.0,94,-99.99,,,0.64,weatherlink.com 1.10,2013-09-11 12:12:00,
2013-09-11 08:27:00,77.4,75.0,30.02,NNE,29,2.0,-999.0,91,-99.99,,,0.64,weatherlink.com 1.10,2013-09-11 12:27:00,
2013-09-11 08:42:00,77.3,74.0,30.02,ENE,78,0.0,-999.0,90,-99.99,,,0.64,weatherlink.com 1.10,2013-09-11 12:42:00,
2013-09-11 08:57:00,77.5,75.0,30.01,ESE,115,0.0,-999.0,92,-99.99,,,0.65,weatherlink.com 1.10,2013-09-11 12:57:00,
2013-09-11 09:12:00,77.9,76.0,30.02,ESE,117,0.0,-999.0,92,-99.99,,,0.69,weatherlink.com 1.10,2013-09-11 13:12:00,
2013-09-11 09:27:00,77.5,75.0,30.02,NW,317,0.0,-999.0,93,-99.99,,,0.69,weatherlink.com 1.10,2013-09-11 13:27:00,
2013-09-11 09:42:00,76.7,74.0,30.04,South,169,2.0,-999.0,90,-99.99,,,0.79,weatherlink.com 1.10,2013-09-11 13:42:00,
2013-09-11 09:57:00,76.0,74.0,30.04,SSE,149,0.0,-999.0,94,-99.99,,,1.30,weatherlink.com 1.10,2013-09-11 13:57:00,
2013-09-11 10:12:00,75.3,73.0,30.04,SE,136,0.0,-999.0,92,-99.99,,,1.35,weatherlink.com 1.10,2013-09-11 14:12:00,
2013-09-11 10:27:00,75.1,73.0,30.04,SE,132,0.0,-999.0,93,-99.99,,,1.43,weatherlink.com 1.10,2013-09-11 14:27:00,
2013-09-11 10:42:00,75.1,73.0,30.04,WNW,302,2.0,-999.0,94,-99.99,,,1.43,weatherlink.com 1.10,2013-09-11 14:42:00,
2013-09-11 10:57:00,75.7,74.0,30.04,NNW,339,3.0,-999.0,95,-99.99,,,1.43,weatherlink.com 1.10,2013-09-11 14:57:00,
2013-09-11 11:12:00,76.0,75.0,30.04,NW,326,0.0,-999.0,95,-99.99,,,1.44,weatherlink.com 1.10,2013-09-11 15:12:00,
2013-09-11 11:27:00,77.0,76.0,30.04,NE,34,1.0,-999.0,95,-99.99,,,1.44,weatherlink.com 1.10,2013-09-11 15:27:00,
2013-09-11 11:42:00,77.0,75.0,30.05,ENE,61,4.0,-999.0,93,-99.99,,,1.44,weatherlink.com 1.10,2013-09-11 15:42:00,
2013-09-11 11:57:00,74.7,73.0,30.05,NNE,26,0.0,-999.0,93,-99.99,,,1.47,weatherlink.com 1.10,2013-09-11 15:57:00,
2013-09-11 12:12:00,74.6,73.0,30.05,East,82,1.0,-999.0,94,-99.99,,,1.47,weatherlink.com 1.10,2013-09-11 16:12:00,
2013-09-11 12:27:00,74.7,73.0,30.05,ESE,113,0.0,-999.0,94,-99.99,,,1.52,weatherlink.com 1.10,2013-09-11 16:27:00,
2013-09-11 12:43:00,74.8,73.0,30.04,ENE,74,0.0,-999.0,95,-99.99,,,1.63,weatherlink.com 1.10,2013-09-11 16:43:00,
2013-09-11 12:57:00,75.4,74.0,30.03,NE,46,1.0,-999.0,95,-99.99,,,1.63,weatherlink.com 1.10,2013-09-11 16:57:00,
2013-09-11 13:12:00,76.2,75.0,30.02,ESE,110,1.0,-999.0,95,-99.99,,,1.63,weatherlink.com 1.10,2013-09-11 17:12:00,
2013-09-11 13:27:00,77.5,75.0,30.01,ENE,78,2.0,-999.0,93,-99.99,,,1.63,weatherlink.com 1.10,2013-09-11 17:27:00,
2013-09-11 13:42:00,79.5,76.0,30.01,East,90,6.0,-999.0,89,-99.99,,,1.63,weatherlink.com 1.10,2013-09-11 17:42:00,
2013-09-11 13:57:00,81.4,77.0,30.00,East,90,1.0,-999.0,87,-99.99,,,1.63,weatherlink.com 1.10,2013-09-11 17:57:00,
2013-09-11 14:12:00,82.4,77.0,30.01,ENE,65,0.0,-999.0,83,-99.99,,,1.63,weatherlink.com 1.10,2013-09-11 18:12:00,
2013-09-11 14:27:00,82.5,76.0,30.01,East,90,0.0,-999.0,80,-99.99,,,1.63,weatherlink.com 1.10,2013-09-11 18:27:00,
2013-09-11 14:42:00,82.4,75.0,30.01,ENE,75,2.0,-999.0,79,-99.99,,,1.63,weatherlink.com 1.10,2013-09-11 18:42:00,
2013-09-11 14:57:00,82.3,76.0,30.00,NE,46,5.0,-999.0,81,-99.99,,,1.63,weatherlink.com 1.10,2013-09-11 18:57:00,
2013-09-11 15:12:00,82.1,76.0,30.00,East,86,6.0,-999.0,81,-99.99,,,1.63,weatherlink.com 1.10,2013-09-11 19:12:00,
2013-09-11 15:27:00,82.1,76.0,29.98,SSE,148,2.0,-999.0,81,-99.99,,,1.63,weatherlink.com 1.10,2013-09-11 19:27:00,
2013-09-11 15:42:00,82.3,76.0,29.99,East,84,3.0,-999.0,81,-99.99,,,1.63,weatherlink.com 1.10,2013-09-11 19:42:00,
2013-09-11 15:57:00,82.2,76.0,29.99,SSE,160,1.0,-999.0,81,-99.99,,,1.63,weatherlink.com 1.10,2013-09-11 19:57:00,
2013-09-11 16:12:00,82.5,76.0,29.99,South,171,2.0,-999.0,81,-99.99,,,1.63,weatherlink.com 1.10,2013-09-11 20:12:00,
2013-09-11 16:27:00,82.5,76.0,29.99,SE,130,0.0,-999.0,81,-99.99,,,1.63,weatherlink.com 1.10,2013-09-11 20:27:00,
2013-09-11 16:42:00,82.8,76.0,29.98,SE,140,2.0,-999.0,80,-99.99,,,1.63,weatherlink.com 1.10,2013-09-11 20:42:00,
2013-09-11 16:57:00,82.5,76.0,29.97,East,93,0.0,-999.0,81,-99.99,,,1.63,weatherlink.com 1.10,2013-09-11 20:57:00,
2013-09-11 17:12:00,82.3,76.0,29.97,East,86,2.0,-999.0,82,-99.99,,,1.63,weatherlink.com 1.10,2013-09-11 21:12:00,
2013-09-11 17:27:00,81.9,76.0,29.97,ESE,115,5.0,-999.0,83,-99.99,,,1.63,weatherlink.com 1.10,2013-09-11 21:27:00,
2013-09-11 17:42:00,81.7,77.0,29.98,SE,146,1.0,-999.0,84,-99.99,,,1.63,weatherlink.com 1.10,2013-09-11 21:42:00,
2013-09-11 17:57:00,81.6,77.0,29.98,ESE,115,0.0,-999.0,85,-99.99,,,1.63,weatherlink.com 1.10,2013-09-11 21:57:00,
2013-09-11 18:27:00,81.4,77.0,29.98,SE,134,0.0,-999.0,86,-99.99,,,1.63,weatherlink.com 1.10,2013-09-11 22:27:00,
2013-09-11 18:42:00,81.0,77.0,29.98,SE,136,0.0,-999.0,86,-99.99,,,1.63,weatherlink.com 1.10,2013-09-11 22:42:00,
2013-09-11 18:57:00,80.9,76.0,29.99,SSE,153,0.0,-999.0,86,-99.99,,,1.63,weatherlink.com 1.10,2013-09-11 22:57:00,
2013-09-11 19:13:00,80.7,76.0,29.98,ESE,122,0.0,-999.0,86,-99.99,,,1.63,weatherlink.com 1.10,2013-09-11 23:13:00,
2013-09-11 19:28:00,80.5,76.0,29.98,East,86,0.0,-999.0,87,-99.99,,,1.63,weatherlink.com 1.10,2013-09-11 23:28:00,
2013-09-11 19:43:00,80.1,75.0,29.98,East,100,0.0,-999.0,85,-99.99,,,1.63,weatherlink.com 1.10,2013-09-11 23:43:00,
2013-09-11 19:58:00,79.8,75.0,29.98,East,96,0.0,-999.0,86,-99.99,,,1.63,weatherlink.com 1.10,2013-09-11 23:58:00,
2013-09-11 20:13:00,79.6,75.0,29.98,East,97,0.0,-999.0,86,-99.99,,,1.63,weatherlink.com 1.10,2013-09-12 00:13:00,
2013-09-11 20:28:00,79.4,75.0,29.98,East,96,0.0,-999.0,87,-99.99,,,1.63,weatherlink.com 1.10,2013-09-12 00:28:00,
2013-09-11 20:43:00,79.2,75.0,29.99,East,97,0.0,-999.0,87,-99.99,,,1.63,weatherlink.com 1.10,2013-09-12 00:43:00,
2013-09-11 20:58:00,79.1,75.0,30.00,East,95,0.0,-999.0,88,-99.99,,,1.63,weatherlink.com 1.10,2013-09-12 00:58:00,
2013-09-11 21:13:00,78.7,75.0,30.00,ENE,59,0.0,-999.0,89,-99.99,,,1.63,weatherlink.com 1.10,2013-09-12 01:13:00,
2013-09-11 21:28:00,78.5,75.0,30.00,ENE,60,0.0,-999.0,90,-99.99,,,1.63,weatherlink.com 1.10,2013-09-12 01:28:00,
2013-09-11 21:43:00,78.4,75.0,30.01,ENE,61,0.0,-999.0,90,-99.99,,,1.63,weatherlink.com 1.10,2013-09-12 01:43:00,
2013-09-11 21:58:00,78.4,75.0,30.00,ENE,60,0.0,-999.0,90,-99.99,,,1.63,weatherlink.com 1.10,2013-09-12 01:58:00,
2013-09-11 22:13:00,78.5,76.0,30.00,NE,41,0.0,-999.0,91,-99.99,,,1.63,weatherlink.com 1.10,2013-09-12 02:13:00,
2013-09-11 22:28:00,78.3,75.0,30.00,NE,42,0.0,-999.0,90,-99.99,,,1.63,weatherlink.com 1.10,2013-09-12 02:28:00,
2013-09-11 22:43:00,78.0,75.0,30.01,NE,42,0.0,-999.0,91,-99.99,,,1.63,weatherlink.com 1.10,2013-09-12 02:43:00,
2013-09-11 22:58:00,77.8,75.0,30.01,NE,42,0.0,-999.0,92,-99.99,,,1.63,weatherlink.com 1.10,2013-09-12 02:58:00,
2013-09-11 23:13:00,77.7,75.0,30.00,NE,42,0.0,-999.0,92,-99.99,,,1.63,weatherlink.com 1.10,2013-09-12 03:13:00,
2013-09-11 23:28:00,78.2,76.0,30.00,SSE,167,0.0,-999.0,92,-99.99,,,1.63,weatherlink.com 1.10,2013-09-12 03:28:00,
2013-09-11 23:43:00,77.9,75.0,30.00,SSE,161,0.0,-999.0,89,-99.99,,,1.63,weatherlink.com 1.10,2013-09-12 03:43:00,
2013-09-11 23:58:00,77.8,73.0,30.00,ENE,75,0.0,-999.0,85,-99.99,,,1.63,weatherlink.com 1.10,2013-09-12 03:58:00,